• In Deutschland
  • Länderverzeichnis
  • Für 7 Tage
  • Wassertemperatur
  • Satellitenkarten
  • Wetterkarte
  • Widgets
  • user-avatar
    Anmelden

    Stündliche Wetter Asadabad

    Heute, 26 Juli, Mittwoch

    Zeit Temperatur Niederschläge Wind Luftdruck Luftfeuchtigkeit
    00:00 +27°C° 0,5 mm 1 m/S 653 mmHg 65%
    01:00 +27°C° 0,5 mm 1 m/S 653 mmHg 67%
    02:00 +26°C° 0,5 mm 1 m/S 653 mmHg 69%
    03:00 +26°C° 0,7 mm 1 m/S 653 mmHg 71%
    04:00 +25°C° 0,7 mm 1 m/S 653 mmHg 72%
    05:00 +25°C° 0,7 mm 1 m/S 653 mmHg 73%
    06:00 +26°C° 0,7 mm 1 m/S 653 mmHg 68%
    07:00 +27°C° 0,7 mm 1 m/S 654 mmHg 63%
    08:00 +29°C° 0,7 mm 1 m/S 654 mmHg 58%
    09:00 +30°C° 0,4 mm 1 m/S 654 mmHg 54%
    10:00 +31°C° 0,4 mm 2 m/S 655 mmHg 50%
    11:00 +31°C° 0 mm 3 m/S 655 mmHg 55%
    12:00 +31°C° 0,1 mm 3 m/S 655 mmHg 53%
    13:00 +33°C° 0,1 mm 3 m/S 655 mmHg 50%
    14:00 +34°C° 0,1 mm 3 m/S 654 mmHg 48%
    15:00 +34°C° 0,1 mm 3 m/S 654 mmHg 49%
    16:00 +34°C° 0,1 mm 3 m/S 654 mmHg 49%
    17:00 +33°C° 0,1 mm 3 m/S 654 mmHg 50%
    18:00 +33°C° 0,3 mm 3 m/S 654 mmHg 54%
    19:00 +31°C° 0,3 mm 2 m/S 654 mmHg 58%
    20:00 +30°C° 0,3 mm 2 m/S 654 mmHg 63%
    21:00 +29°C° 1,3 mm 1 m/S 654 mmHg 65%
    22:00 +28°C° 1,3 mm 1 m/S 654 mmHg 67%
    23:00 +28°C° 1,3 mm 1 m/S 654 mmHg 69%

    Morgen, 27 Juli, Donnerstag

    Zeit Temperatur Niederschläge Wind Luftdruck Luftfeuchtigkeit
    00:00 +27°C° 1,2 mm 1 m/S 654 mmHg 70%
    01:00 +27°C° 1,2 mm 1 m/S 654 mmHg 72%
    02:00 +26°C° 1,2 mm 1 m/S 654 mmHg 73%
    03:00 +26°C° 0,6 mm 1 m/S 654 mmHg 74%
    04:00 +26°C° 0,6 mm 1 m/S 654 mmHg 74%
    05:00 +25°C° 0,6 mm 1 m/S 654 mmHg 75%
    06:00 +27°C° 0,1 mm 1 m/S 654 mmHg 69%
    07:00 +28°C° 0,1 mm 1 m/S 655 mmHg 64%
    08:00 +29°C° 0,1 mm 1 m/S 655 mmHg 59%
    09:00 +30°C° 0 mm 2 m/S 655 mmHg 55%
    10:00 +31°C° 0 mm 2 m/S 655 mmHg 51%
    11:00 +32°C° 0 mm 2 m/S 655 mmHg 48%
    12:00 +34°C° 0 mm 3 m/S 655 mmHg 46%
    13:00 +35°C° 0 mm 3 m/S 655 mmHg 44%
    14:00 +36°C° 0 mm 3 m/S 655 mmHg 42%
    15:00 +36°C° 0,1 mm 3 m/S 655 mmHg 41%
    16:00 +36°C° 0,1 mm 3 m/S 655 mmHg 41%
    17:00 +36°C° 0,1 mm 3 m/S 654 mmHg 40%
    18:00 +34°C° 0,1 mm 2 m/S 654 mmHg 45%
    19:00 +32°C° 0,1 mm 2 m/S 654 mmHg 49%
    20:00 +31°C° 0,1 mm 1 m/S 654 mmHg 54%
    21:00 +30°C° 0,4 mm 1 m/S 655 mmHg 56%
    22:00 +29°C° 0,4 mm 1 m/S 655 mmHg 58%
    23:00 +29°C° 0,4 mm 1 m/S 655 mmHg 61%

    übermorgen, 28 Juli, Freitag

    Zeit Temperatur Niederschläge Wind Luftdruck Luftfeuchtigkeit
    00:00 +28°C° 0,3 mm 1 m/S 655 mmHg 62%
    01:00 +28°C° 0,3 mm 1 m/S 655 mmHg 64%
    02:00 +27°C° 0,3 mm 1 m/S 655 mmHg 65%
    03:00 +27°C° 0,4 mm 1 m/S 655 mmHg 65%
    04:00 +27°C° 0,4 mm 1 m/S 655 mmHg 65%
    05:00 +26°C° 0,4 mm 1 m/S 655 mmHg 65%
    06:00 +28°C° 0 mm 1 m/S 655 mmHg 61%
    07:00 +29°C° 0 mm 1 m/S 656 mmHg 56%
    08:00 +30°C° 0 mm 1 m/S 656 mmHg 51%
    09:00 +31°C° 0 mm 2 m/S 656 mmHg 48%
    10:00 +32°C° 0 mm 2 m/S 657 mmHg 46%
    11:00 +35°C° 0 mm 2 m/S 657 mmHg 43%
    12:00 +35°C° 0 mm 3 m/S 656 mmHg 41%
    13:00 +36°C° 0 mm 3 m/S 656 mmHg 40%
    14:00 +37°C° 0 mm 3 m/S 656 mmHg 39%
    15:00 +37°C° 0 mm 3 m/S 656 mmHg 38%
    16:00 +37°C° 0 mm 3 m/S 656 mmHg 38%
    17:00 +37°C° 0 mm 3 m/S 656 mmHg 38%
    18:00 +35°C° 0,1 mm 3 m/S 656 mmHg 43%
    19:00 +34°C° 0,1 mm 2 m/S 656 mmHg 48%
    20:00 +31°C° 0,1 mm 2 m/S 656 mmHg 53%
    21:00 +30°C° 0,3 mm 2 m/S 656 mmHg 56%
    22:00 +30°C° 0,3 mm 1 m/S 656 mmHg 58%
    23:00 +29°C° 0,3 mm 1 m/S 656 mmHg 61%

    29 Juli, Samstag

    Zeit Temperatur Niederschläge Wind Luftdruck Luftfeuchtigkeit
    00:00 +29°C° 0,5 mm 1 m/S 656 mmHg 64%
    01:00 +28°C° 0,5 mm 1 m/S 656 mmHg 66%
    02:00 +27°C° 0,5 mm 1 m/S 655 mmHg 68%
    03:00 +27°C° 0,3 mm 1 m/S 655 mmHg 70%
    04:00 +27°C° 0,3 mm 1 m/S 655 mmHg 71%
    05:00 +26°C° 0,3 mm 1 m/S 655 mmHg 72%
    06:00 +27°C° 0,1 mm 1 m/S 655 mmHg 68%
    07:00 +29°C° 0,1 mm 1 m/S 656 mmHg 64%
    08:00 +30°C° 0,1 mm 1 m/S 656 mmHg 60%
    09:00 +31°C° 0 mm 2 m/S 656 mmHg 55%
    10:00 +32°C° 0 mm 2 m/S 656 mmHg 51%
    11:00 +34°C° 0 mm 3 m/S 656 mmHg 46%
    12:00 +35°C° 0 mm 3 m/S 656 mmHg 44%
    13:00 +36°C° 0 mm 3 m/S 656 mmHg 42%
    14:00 +37°C° 0 mm 3 m/S 655 mmHg 40%
    15:00 +37°C° 0 mm 3 m/S 655 mmHg 40%
    16:00 +37°C° 0 mm 3 m/S 655 mmHg 40%
    17:00 +37°C° 0 mm 4 m/S 655 mmHg 39%
    18:00 +35°C° 0,1 mm 3 m/S 655 mmHg 45%
    19:00 +34°C° 0,1 mm 2 m/S 655 mmHg 50%
    20:00 +31°C° 0,1 mm 2 m/S 655 mmHg 55%
    21:00 +31°C° 0,1 mm 1 m/S 655 mmHg 58%
    22:00 +30°C° 0,1 mm 1 m/S 655 mmHg 60%
    23:00 +30°C° 0,1 mm 1 m/S 655 mmHg 63%

    30 Juli, Sonntag

    Zeit Temperatur Niederschläge Wind Luftdruck Luftfeuchtigkeit
    00:00 +29°C° 0,7 mm 1 m/S 655 mmHg 64%
    01:00 +29°C° 0,7 mm 1 m/S 655 mmHg 66%
    02:00 +28°C° 0,7 mm 1 m/S 654 mmHg 68%
    03:00 +28°C° 0,4 mm 1 m/S 654 mmHg 70%
    04:00 +27°C° 0,4 mm 1 m/S 654 mmHg 71%
    05:00 +27°C° 0,4 mm 1 m/S 654 mmHg 72%
    06:00 +28°C° 0,1 mm 1 m/S 654 mmHg 67%
    07:00 +29°C° 0,1 mm 1 m/S 655 mmHg 61%
    08:00 +30°C° 0,1 mm 1 m/S 655 mmHg 55%
    09:00 +32°C° 0 mm 2 m/S 655 mmHg 52%
    10:00 +34°C° 0 mm 2 m/S 655 mmHg 49%
    11:00 +35°C° 0 mm 3 m/S 655 mmHg 46%
    12:00 +35°C° 0 mm 3 m/S 655 mmHg 44%
    13:00 +36°C° 0 mm 3 m/S 654 mmHg 42%
    14:00 +37°C° 0 mm 3 m/S 654 mmHg 40%
    15:00 +37°C° 0 mm 3 m/S 654 mmHg 39%
    16:00 +37°C° 0 mm 3 m/S 654 mmHg 38%
    17:00 +37°C° 0 mm 3 m/S 654 mmHg 37%
    18:00 +36°C° 0 mm 3 m/S 654 mmHg 42%
    19:00 +34°C° 0 mm 2 m/S 654 mmHg 47%
    20:00 +31°C° 0 mm 2 m/S 654 mmHg 51%
    21:00 +31°C° 0,2 mm 2 m/S 654 mmHg 54%
    22:00 +30°C° 0,2 mm 2 m/S 654 mmHg 57%
    23:00 +29°C° 0,2 mm 2 m/S 654 mmHg 60%

    31 Juli, Montag

    Zeit Temperatur Niederschläge Wind Luftdruck Luftfeuchtigkeit
    00:00 +29°C° 1 mm 2 m/S 654 mmHg 64%
    01:00 +28°C° 1 mm 2 m/S 654 mmHg 68%
    02:00 +27°C° 1 mm 2 m/S 654 mmHg 73%
    03:00 +27°C° 0,6 mm 1 m/S 653 mmHg 74%
    04:00 +26°C° 0,6 mm 1 m/S 653 mmHg 76%
    05:00 +26°C° 0,6 mm 1 m/S 653 mmHg 77%
    06:00 +27°C° 0,2 mm 1 m/S 654 mmHg 72%
    07:00 +28°C° 0,2 mm 1 m/S 654 mmHg 67%
    08:00 +29°C° 0,2 mm 2 m/S 655 mmHg 62%
    09:00 +30°C° 0,1 mm 2 m/S 655 mmHg 59%
    10:00 +31°C° 0,1 mm 2 m/S 655 mmHg 55%
    11:00 +34°C° 0,1 mm 3 m/S 655 mmHg 52%
    12:00 +34°C° 0,1 mm 3 m/S 655 mmHg 52%
    13:00 +34°C° 0,1 mm 3 m/S 654 mmHg 53%
    14:00 +35°C° 0,1 mm 4 m/S 654 mmHg 53%
    15:00 +34°C° 0,2 mm 4 m/S 654 mmHg 55%
    16:00 +34°C° 0,2 mm 4 m/S 654 mmHg 57%
    17:00 +33°C° 0,2 mm 4 m/S 654 mmHg 59%
    18:00 +31°C° 0,7 mm 3 m/S 654 mmHg 64%
    19:00 +30°C° 0,7 mm 3 m/S 654 mmHg 69%
    20:00 +29°C° 0,7 mm 2 m/S 655 mmHg 75%
    21:00 +29°C° 1,4 mm 2 m/S 655 mmHg 76%
    22:00 +28°C° 1,4 mm 2 m/S 655 mmHg 77%
    23:00 +28°C° 1,4 mm 2 m/S 655 mmHg 78%
    Mehr zeigen